Regional Weather Roundup
Issued by NWS State College, PA

Home | Current Version | Previous Version | Text Only | Print | Product List | Glossary On
Versions: 1 2 3 4 5 6 7 8 9 10 11 12 13 14 15 16 17 18 19 20 21 22 23 24 25 26 27 28 29 30 31 32 33 34 35 36 37 38 39 40 41 42 43 44 45 46 47 48 49 50
000
ASUS41 KCTP 041410
RWRCTP

REGIONAL WEATHER ROUNDUP
NATIONAL WEATHER SERVICE STATE COLLEGE PA
1000 AM EDT MON MAY 04 2015

Note: "fair" indicates few or no clouds below 12,000 feet with no
significant weather and/or obstructions to visibility.

* = STATION THAT DOES NOT REPORT PRECIPITATION /E.G. RAIN...SNOW...ETC/
    THUNDER OR FOG.

PAZ002>004-007>009-013>016-020>023-029>032-041500-
WESTERN PENNSYLVANIA

CITY           SKY/WX    TMP DP  RH WIND       PRES   REMARKS
ERIE           SUNNY     73  44  35 S13       30.10F
MEADVILLE      SUNNY     72  42  34 SW13      30.15F
FRANKLIN*      SUNNY     72  41  33 SW12G23   30.18F
NEW CASTLE     FAIR      73  46  38 VRB7      30.17F
BEAVER COUNTY  SUNNY     70  43  37 S9        30.18S
BUTLER*        SUNNY     70  45  40 SW8       30.20F
PITTSBURGH INT MOSUNNY   72  40  31 S10       30.18F
PITTSBURGH     SUNNY     67  39  35 S9        30.19S
INDIANA*       SUNNY     72  43  35 SW9       30.23F
LATROBE        SUNNY     68  48  49 SW12      30.22S
WASHINGTON CO* SUNNY     70  45  40 S8        30.21F
$$

PAZ004>006-010>012-017>019-024>028-033>037-041-042-045-046-049>053-041500-
CENTRAL PENNSYLVANIA

CITY           SKY/WX    TMP DP  RH WIND       PRES   REMARKS
BRADFORD       SUNNY     69  37  30 SW6G17    30.19F
DUBOIS         SUNNY     73  37  27 SW10      30.19F
CLEARFIELD     SUNNY     65  42  43 VRB5      30.21F
JOHNSTOWN      SUNNY     67  38  34 SW9       30.23F
ALTOONA        SUNNY     70  43  37 SW8       30.22F
STATE COLLEGE  SUNNY     68  46  45 SW6       30.21F
WILLIAMSPORT   SUNNY     64  43  46 CALM      30.19F
SELINSGROVE    SUNNY     67  52  58 SE5       30.21F
FT INDIANTOWN  SUNNY     68  47  47 VRB2      30.21F
CAPITAL CITY   SUNNY     69  50  50 CALM      30.21F
HARRISBURG     MOSUNNY   66  53  63 S3        30.21F
YORK           SUNNY     72  51  47 CALM      30.22F
$$

PAZ038>040-043-044-047-048-054-055-060>062-067>071-041500-
EASTERN PENNSYLVANIA

CITY           SKY/WX    TMP DP  RH WIND       PRES   REMARKS
SCRANTON       MOSUNNY   73  42  32 W3        30.20F
MOUNT POCONO   SUNNY     72  39  30 SW10      30.24S
ALLENTOWN      SUNNY     70  47  43 CALM      30.21F
QUAKERTOWN*    MOSUNNY   73  48  40 SW6       30.22F
READING        MOSUNNY   71  46  40 CALM      30.21F
LANCASTER      SUNNY     70  47  43 CALM      30.22F
COATESVILLE    SUNNY     73  46  38 SW5       30.24S
POTTSTOWN      SUNNY     70  49  47 CALM      30.23S
BLUE BELL      SUNNY     73  50  43 CALM      30.21F
DOYLESTOWN     SUNNY     71  46  40 VRB5      30.21S
WILLOW GROVE   NOT AVBL
NORTH PHILA    SUNNY     73  49  42 S5        30.24R
PHILADELPHIA   MOSUNNY   71  50  47 SW7       30.23S
$$



USA.gov is the U.S. government's official web portal to all federal, state and local government web resources and services.